sat.trackr.live / text

‹ back to catalog

KENT RIDGE 1

NORAD 41167 · 2015-077B

PAYLOAD ACTIVE UNKNOWN

§ Identity

Operator
Country
SING
Launch date
2015-12-16
Launch site
SRILR
Launch vehicle
Mass (kg)
RCS (m²)
0.20

Purposes: earth_obs

External: N2YO · Heavens-Above · Gunter

§ Orbital elements

Epoch: 2026-05-25T04:14:33.263232Z

Period
94.55 min
Inclination
14.9800°
Eccentricity
0.0008445
Mean motion
15.22968078 rev/d
Perigee alt
491.1 km
Apogee alt
502.7 km
Semi-major
6,875.0 km
B*
1.1813e-4
RAAN
77.0877°
Arg perigee
274.3014°
Mean anomaly
85.6343°
Rev number
57,758

§ Raw data

KENT RIDGE 11 41167U 15077B   26145.17677388  .00003623  00000+0  11813-3 0  99942 41167  14.9800  77.0877 0008445 274.3014  85.6343 15.22968078577580

JSON: /api/v1/satellites/41167 · /tle

For live sub-satellite position, see the globe view (requires WebGL).

§ Visibility from observer

Set your observer location to see the next 7 days of passes ≥ 10°. The values pass through the URL so the page stays shareable.

No JS? Fill the form by hand. The geolocation button needs JavaScript.